Wind_Speed
11 9 8 7 7 7 8 8 9 9 8 8 8 8 9 10 13 17 21 14 10 10 10 10 9 9 5 16 14 19 2 6 12 9 7 12 12 12 17 30 12 20 14 12 25
12 11 10 8 7 6 7 8 8 8 8 9 8 8 9 11 15 23 18 14 13 10 10 12 8 6 10 11 11 6 2 9 11 8 7 14 16 27 15 19 12 19 18 16 27
12 11 10 9 8 6 6 7 7 8 8 8 8 8 9 10 15 9 5 12 12 12 14 13 10 16 18 19 26 17 11 10 21 13 10 12 13 8 34 8 27 29 27 26 29
13 12 11 10 8 6 6 6 6 7 7 8 8 8 8 7 2 5 6 5 9 13 15 14 14 18 8 8 23 9 24 22 25 10 7 9 18 7 21 24 21 30 34 31 29
13 12 10 10 8 6 5 5 5 6 6 7 8 8 7 7 17 10 7 4 12 14 16 13 13 17 7 11 20 8 19 28 26 20 2 1 12 3 6 22 23 26 30 29 30
15 13 11 10 8 6 5 4 4 5 6 7 8 8 7 7 8 6 9 4 8 13 15 12 13 16 18 18 9 27 26 25 20 19 9 4 15 6 7 14 7 14 17 18 17
16 12 10 9 7 5 4 4 4 4 5 6 7 8 11 19 2 6 9 5 8 6 10 10 16 19 17 10 26 25 8 7 12 9 7 15 7 7 17 14 14 11 7 14 7
17 12 10 8 7 4 3 4 4 3 3 3 5 7 11 10 10 14 8 3 7 12 14 14 15 18 11 19 20 9 4 4 9 9 13 8 8 8 15 17 13 13 18 18 23
17 13 10 8 5 3 3 3 3 3 3 3 4 5 12 5 13 13 13 13 9 8 11 12 12 7 12 6 6 6 5 8 11 20 8 8 7 10 21 21 18 24 24 20 19
18 14 11 7 2 3 2 2 3 4 4 5 9 7 13 17 16 17 16 13 14 7 10 12 3 2 5 2 8 9 7 8 13 16 18 9 9 6 17 17 19 25 30 23 15
18 14 10 5 1 4 2 1 3 3 10 13 11 14 10 3 10 13 18 15 14 11 6 14 3 8 12 12 14 11 11 10 14 8 10 10 9 9 23 26 20 23 31 25 17
17 14 8 4 2 2 3 4 12 12 14 20 27 28 30 16 8 13 18 16 15 7 9 7 11 12 13 16 15 16 14 14 8 5 6 10 9 9 10 13 28 30 33 29 21
15 11 6 4 2 1 4 4 10 16 7 19 29 30 28 18 15 14 21 21 11 8 9 10 13 17 16 16 15 12 8 5 6 10 4 6 5 7 7 22 22 31 34 29 26
14 8 2 2 4 5 13 9 15 14 3 6 8 16 24 23 15 19 25 21 12 12 12 11 14 18 15 14 11 8 10 3 9 8 5 1 5 7 9 10 9 25 33 29 24
13 5 3 3 4 8 12 11 13 4 4 8 7 4 7 27 5 22 26 27 14 13 9 19 10 14 14 15 9 9 7 7 7 7 6 15 1 8 9 12 14 22 32 34 27
12 5 2 2 4 13 15 11 6 1 6 5 6 6 5 9 19 26 16 25 24 14 15 18 29 16 13 15 13 11 7 7 7 4 11 8 10 14 6 9 17 23 31 38 35
12 5 3 3 6 14 12 10 2 3 12 9 7 6 3 6 9 11 12 11 12 5 8 14 21 20 23 14 12 5 3 3 5 3 10 7 7 12 12 17 16 25 36 40 39
11 4 1 3 7 13 9 3 3 9 10 13 12 12 6 8 12 8 10 8 9 10 9 11 16 18 22 18 11 9 8 6 10 6 13 9 17 18 16 24 21 42 40 40 41
7 4 3 5 8 8 7 2 3 7 12 12 11 6 7 15 13 10 10 13 12 12 14 13 23 21 21 16 13 11 12 10 12 7 7 9 10 9 2 9 22 32 35 36 37
6 5 5 5 7 6 1 4 4 12 11 11 6 9 10 14 14 16 8 7 13 12 15 7 18 16 21 20 20 10 10 6 1 7 9 8 9 7 6 12 15 17 27 31 33
2 2 12 14 6 3 2 3 6 20 20 10 11 8 10 12 15 13 5 16 23 24 18 6 4 3 7 17 18 11 4 5 5 6 7 13 11 5 5 18 23 20 27 32 34
7 4 22 16 5 6 7 9 14 20 26 16 11 12 11 13 8 9 6 9 39 33 12 11 5 7 9 14 16 8 5 11 11 10 3 1 7 1 12 16 25 24 32 33 23
6 7 30 13 5 6 12 12 17 20 21 14 11 12 14 14 8 13 18 29 40 26 15 12 6 5 9 6 7 7 6 3 4 16 20 11 8 4 7 12 17 23 23 29 34
8 4 12 25 23 10 6 15 13 27 21 21 11 14 18 15 14 14 16 17 36 33 27 19 5 7 8 11 15 10 14 6 5 4 4 13 20 15 10 5 16 21 21 20 27
12 6 11 5 11 18 14 11 16 14 18 22 9 15 13 7 13 10 22 24 28 20 24 13 7 15 26 22 18 23 22 20 13 7 7 8 8 13 19 6 13 22 16 15 25
8 7 13 6 19 13 12 9 13 13 9 11 8 10 9 7 8 17 17 15 13 16 16 7 6 17 20 16 14 20 21 23 19 13 8 8 8 9 25 19 21 5 12 24 27
20 20 8 15 17 7 5 7 10 12 8 15 14 7 8 13 21 24 26 30 29 20 17 13 6 1 10 16 21 10 11 13 16 8 5 6 13 12 14 12 22 22 20 30 26
Wind_Direction
4 353 337 317 292 274 267 264 261 260 262 267 272 278 283 285 281 272 259 254 247 246 254 270 264 255 270 275 277 286 320 278 274 294 311 116 125 129 114 141 151 178 176 177 159
359 354 345 328 314 289 274 269 266 264 263 264 269 275 285 290 288 274 271 244 226 255 258 259 242 253 244 265 264 232 291 250 269 325 19 356 94 129 113 119 180 182 181 173 166
351 350 346 331 319 299 275 269 269 265 263 263 265 272 281 296 305 295 281 219 224 245 272 253 233 256 239 254 263 261 244 270 279 294 26 351 14 348 134 171 169 181 175 168 177
345 344 340 334 318 305 281 270 269 265 260 258 258 261 273 291 279 327 329 274 239 239 247 213 240 263 245 245 256 272 273 266 274 300 45 345 324 1 140 180 144 152 160 168 184
341 337 335 329 316 303 283 274 271 267 265 260 254 255 269 270 255 299 300 268 225 226 212 193 239 248 240 241 257 254 262 268 270 271 116 289 291 290 60 142 176 170 182 194 196
340 333 330 324 313 295 284 275 275 272 268 259 247 245 247 253 268 260 278 243 213 193 187 215 244 242 265 261 238 260 256 251 270 285 236 214 276 296 258 137 145 138 158 171 177
344 336 328 321 313 287 278 269 269 272 270 250 236 237 246 238 228 302 301 206 177 167 207 237 247 251 254 277 269 274 272 289 263 250 219 249 273 217 244 149 129 112 98 146 153
352 343 331 321 314 273 263 262 270 276 275 247 228 244 256 219 249 234 282 222 181 215 254 258 258 268 284 290 294 303 297 284 271 237 235 196 257 241 216 152 145 148 110 109 98
357 350 338 324 305 242 248 263 253 265 254 235 221 259 266 245 216 215 228 213 218 223 242 260 296 277 283 293 309 283 227 252 264 248 197 165 232 257 179 162 163 125 121 117 108
357 352 340 324 279 194 216 237 234 248 241 239 212 282 250 226 215 222 215 225 228 214 241 256 300 265 296 235 231 241 215 239 239 248 200 197 205 190 167 163 153 146 130 133 136
357 356 350 345 177 182 216 254 308 240 220 222 228 224 289 339 204 200 202 214 229 208 221 228 185 228 227 238 241 255 273 261 262 232 154 199 202 185 175 175 171 146 132 133 150
359 2 11 34 121 187 257 279 330 319 296 272 266 248 264 272 189 204 200 208 230 211 217 267 227 230 241 243 243 248 252 269 296 9 115 197 213 176 186 193 183 147 141 150 159
358 6 30 73 113 205 306 319 346 321 290 286 239 235 238 252 217 210 202 209 222 219 234 211 241 220 240 260 265 263 230 278 284 309 277 175 227 211 199 198 195 159 162 163 171
354 0 22 18 332 314 285 338 330 324 319 271 182 221 226 239 231 230 212 203 217 241 223 245 249 251 256 242 250 274 270 253 293 302 267 74 260 233 209 192 178 150 151 158 161
345 347 22 26 9 17 357 327 315 324 332 151 115 132 206 201 237 209 222 203 220 234 242 256 239 254 261 256 242 234 280 270 257 265 270 269 255 262 204 221 181 153 149 159 161
338 323 204 291 347 346 335 320 314 10 252 151 129 174 221 244 226 251 243 225 218 233 257 268 277 273 252 267 256 245 233 278 275 260 269 238 231 258 240 225 186 162 157 156 156
341 307 242 196 358 338 325 327 353 227 334 31 29 28 229 222 218 226 251 219 208 220 255 267 271 277 278 284 288 261 120 275 287 277 247 238 239 245 250 245 183 171 167 163 163
341 342 183 184 2 330 346 355 262 290 16 4 356 326 300 303 306 270 235 243 222 209 241 263 275 249 253 254 230 232 189 202 237 232 264 235 244 252 259 244 232 173 162 160 160
356 94 109 36 346 340 340 314 288 360 10 345 324 336 349 333 334 298 260 226 232 211 226 240 252 262 268 268 263 241 225 224 238 226 260 267 283 321 118 67 135 152 156 159 161
49 131 66 324 340 8 20 258 8 31 17 357 360 10 350 338 331 340 319 339 340 318 344 298 268 243 247 265 266 239 205 246 248 207 249 261 273 251 312 124 133 148 154 154 159
74 61 360 341 311 252 226 324 13 5 29 9 355 323 339 356 336 326 293 327 19 355 338 334 287 308 339 242 249 279 218 208 157 187 215 249 255 201 164 162 160 157 150 161 168
44 61 3 343 49 345 38 349 344 31 32 23 358 10 11 335 317 324 324 346 24 9 7 12 278 272 250 285 294 291 252 223 215 254 276 208 261 245 133 134 125 142 149 166 179
15 44 26 40 55 355 358 7 34 36 37 20 359 2 11 11 332 341 344 342 11 5 14 345 313 328 328 306 294 259 273 223 181 227 250 264 264 275 24 100 92 100 155 171 161
20 22 18 49 37 35 352 22 8 27 24 6 4 8 5 350 351 320 320 336 346 341 2 355 300 331 276 302 321 305 310 298 164 179 207 232 255 279 291 186 139 133 142 153 174
39 60 5 13 26 45 53 17 14 11 11 24 7 4 352 336 319 340 339 336 340 342 347 0 298 339 314 314 307 302 282 284 272 230 177 230 238 278 291 251 194 205 202 187 207
54 10 343 28 48 57 25 17 17 11 5 7 355 346 344 332 339 328 330 326 312 311 316 304 272 314 303 319 323 298 288 272 277 291 295 250 232 234 252 174 121 162 218 198 199
30 20 337 41 58 51 38 6 1 343 348 338 324 337 358 351 334 319 302 289 281 276 272 277 258 272 273 351 333 295 289 301 305 297 308 5 324 325 255 178 177 192 221 240 187
Height
1527 1526 1524 1523 1522 1521 1520 1520 1520 1521 1521 1521 1521 1521 1520 1520 1519 1517 1513 1515 1516 1518 1519 1520 1521 1523 1524 1521 1523 1521 1531 1537 1523 1516 1505 1495 1505 1520 1518 1520 1528 1528 1524 1528 1534
1527 1525 1523 1521 1520 1519 1519 1519 1519 1519 1519 1520 1519 1520 1519 1518 1516 1512 1511 1512 1513 1516 1518 1519 1519 1523 1525 1521 1520 1520 1530 1520 1510 1511 1507 1501 1499 1511 1525 1529 1527 1524 1525 1528 1532
1527 1524 1522 1521 1519 1518 1517 1517 1517 1517 1518 1518 1518 1518 1518 1517 1515 1507 1507 1509 1511 1514 1516 1517 1519 1522 1523 1521 1517 1516 1521 1511 1507 1509 1504 1504 1500 1502 1515 1528 1515 1518 1523 1528 1528
1526 1523 1521 1519 1517 1516 1516 1516 1516 1516 1516 1517 1517 1517 1517 1517 1516 1508 1508 1508 1509 1512 1514 1516 1517 1518 1520 1520 1515 1517 1509 1508 1504 1505 1504 1507 1505 1506 1509 1514 1511 1514 1517 1522 1525
1524 1522 1519 1518 1516 1515 1514 1514 1515 1515 1515 1515 1515 1515 1516 1515 1508 1507 1507 1507 1508 1510 1512 1514 1516 1516 1517 1514 1512 1513 1507 1505 1503 1503 1503 1505 1508 1507 1509 1511 1515 1515 1517 1519 1522
1523 1520 1518 1516 1515 1514 1513 1513 1513 1513 1513 1513 1514 1514 1515 1514 1506 1506 1507 1507 1507 1509 1512 1513 1513 1514 1513 1510 1512 1506 1504 1500 1500 1500 1501 1503 1506 1507 1507 1508 1512 1515 1516 1517 1521
1521 1518 1516 1515 1513 1512 1512 1513 1513 1513 1512 1512 1512 1512 1512 1505 1505 1506 1506 1506 1507 1509 1510 1511 1512 1514 1510 1509 1505 1503 1504 1498 1497 1498 1500 1501 1507 1505 1505 1507 1508 1512 1515 1518 1521
1519 1516 1515 1513 1512 1511 1512 1512 1512 1512 1512 1512 1512 1512 1506 1502 1504 1505 1505 1506 1508 1509 1511 1510 1510 1511 1509 1507 1502 1505 1499 1515 1498 1496 1495 1500 1520 1499 1502 1503 1505 1510 1513 1516 1522
1518 1515 1513 1512 1511 1511 1511 1511 1511 1511 1511 1512 1512 1512 1503 1500 1500 1502 1504 1506 1507 1508 1510 1509 1509 1507 1508 1512 1518 1507 1521 1512 1504 1489 1492 1498 1509 1496 1496 1500 1504 1507 1510 1515 1521
1518 1514 1512 1510 1510 1511 1511 1511 1511 1511 1511 1511 1511 1514 1499 1494 1496 1499 1503 1504 1506 1507 1509 1509 1509 1511 1511 1518 1534 1522 1514 1507 1502 1485 1486 1495 1499 1494 1496 1498 1502 1504 1508 1512 1517
1517 1514 1511 1510 1510 1511 1511 1511 1513 1512 1509 1504 1500 1495 1493 1493 1495 1496 1500 1503 1504 1505 1509 1507 1516 1522 1512 1505 1502 1499 1503 1504 1488 1477 1482 1491 1494 1491 1490 1493 1497 1500 1504 1509 1514
1518 1514 1512 1511 1511 1511 1511 1511 1510 1510 1501 1496 1492 1494 1490 1491 1493 1494 1499 1501 1501 1506 1504 1510 1514 1500 1498 1495 1495 1494 1499 1498 1482 1475 1478 1488 1490 1486 1487 1489 1491 1495 1498 1502 1508
1518 1515 1513 1512 1512 1512 1512 1511 1508 1507 1502 1484 1481 1486 1488 1490 1490 1492 1495 1497 1498 1503 1504 1510 1496 1493 1494 1493 1493 1491 1496 1491 1492 1480 1478 1484 1493 1485 1483 1485 1488 1490 1492 1497 1500
1518 1516 1515 1514 1515 1513 1511 1510 1509 1506 1510 1484 1477 1480 1485 1487 1486 1488 1489 1494 1496 1499 1500 1498 1490 1490 1491 1492 1486 1500 1480 1478 1485 1494 1515 1480 1523 1490 1479 1485 1484 1489 1490 1494 1498
1517 1515 1514 1513 1512 1512 1512 1510 1508 1506 1532 1471 1474 1476 1478 1481 1478 1479 1485 1489 1491 1493 1496 1490 1487 1488 1490 1484 1478 1487 1475 1481 1484 1494 1497 1491 1511 1493 1476 1482 1481 1481 1485 1491 1495
1515 1514 1514 1514 1513 1512 1510 1508 1507 1517 1521 1474 1473 1476 1478 1478 1479 1480 1483 1485 1485 1489 1487 1484 1479 1478 1477 1472 1472 1469 1475 1480 1485 1494 1511 1499 1498 1487 1486 1472 1473 1477 1481 1485 1490
1513 1512 1512 1513 1513 1511 1508 1506 1517 1522 1473 1481 1478 1474 1475 1477 1476 1476 1478 1484 1491 1501 1500 1487 1480 1472 1470 1474 1468 1470 1485 1520 1524 1523 1509 1487 1495 1476 1463 1455 1461 1468 1474 1480 1486
1511 1510 1512 1512 1512 1511 1509 1509 1522 1493 1490 1483 1485 1481 1484 1478 1475 1473 1476 1483 1477 1481 1490 1497 1497 1474 1465 1467 1476 1475 1483 1510 1532 1527 1503 1483 1489 1468 1451 1448 1445 1456 1465 1475 1482
1510 1510 1511 1512 1513 1511 1511 1520 1508 1497 1496 1495 1487 1488 1487 1479 1482 1477 1474 1474 1469 1471 1487 1487 1476 1460 1457 1459 1461 1467 1476 1470 1489 1490 1502 1485 1473 1457 1447 1441 1442 1457 1466 1475 1482
1509 1510 1513 1512 1512 1511 1513 1515 1504 1501 1500 1499 1502 1496 1506 1496 1493 1491 1484 1470 1475 1468 1468 1469 1473 1455 1449 1449 1446 1455 1453 1482 1488 1512 1520 1491 1480 1478 1459 1456 1454 1459 1465 1475 1486
1509 1511 1514 1512 1510 1511 1518 1509 1504 1505 1504 1505 1509 1508 1506 1511 1505 1497 1487 1480 1484 1478 1469 1467 1471 1462 1453 1452 1454 1454 1458 1458 1469 1479 1504 1496 1480 1450 1448 1450 1448 1456 1468 1476 1483
1510 1513 1515 1510 1512 1512 1523 1520 1514 1512 1512 1515 1514 1516 1521 1519 1511 1508 1497 1495 1502 1499 1498 1489 1478 1473 1464 1447 1443 1447 1448 1450 1467 1485 1485 1488 1479 1440 1445 1447 1449 1464 1466 1476 1482
1514 1517 1516 1509 1529 1532 1528 1522 1520 1523 1528 1531 1528 1528 1528 1527 1524 1508 1508 1505 1508 1510 1512 1507 1490 1489 1470 1454 1443 1448 1441 1449 1457 1469 1489 1494 1480 1448 1453 1450 1458 1460 1467 1472 1478
1521 1523 1524 1526 1533 1534 1532 1536 1532 1532 1534 1537 1536 1532 1534 1535 1531 1527 1520 1512 1517 1521 1517 1509 1503 1499 1491 1472 1463 1462 1448 1447 1463 1482 1476 1475 1460 1454 1455 1457 1454 1455 1462 1467 1476
1527 1537 1540 1539 1537 1539 1540 1544 1543 1542 1544 1541 1541 1542 1542 1541 1534 1529 1527 1521 1520 1517 1520 1522 1516 1506 1494 1491 1480 1463 1451 1443 1449 1453 1467 1461 1471 1462 1458 1457 1456 1451 1463 1462 1468
1541 1546 1543 1541 1541 1543 1547 1551 1549 1548 1547 1545 1546 1542 1541 1543 1541 1535 1532 1532 1529 1520 1519 1520 1515 1509 1492 1484 1474 1465 1451 1440 1440 1441 1450 1451 1454 1444 1444 1453 1459 1468 1471 1468 1463
1548 1548 1548 1546 1547 1550 1553 1552 1551 1549 1548 1546 1543 1541 1540 1542 1539 1535 1531 1525 1520 1518 1518 1518 1516 1511 1497 1492 1485 1475 1454 1448 1441 1443 1454 1465 1464 1450 1445 1438 1444 1447 1450 1452 1457